Regional Weather Roundup
Issued by NWS Mt. Holly, NJ

Home | Current Version | Previous Version | Text Only | Print | Product List | Glossary On
Versions: 1 2 3 4 5 6 7 8 9 10 11 12 13 14 15 16 17 18 19 20 21 22 23 24 25 26 27 28 29 30 31 32 33 34 35 36 37 38 39 40 41 42 43 44 45 46 47 48 49 50
000
ASUS41 KPHI 300612
RWRPHI

REGIONAL WEATHER ROUNDUP
NATIONAL WEATHER SERVICE MOUNT HOLLY NJ
200 AM EDT THU MAR 30 2017

NOTE:  "FAIR" INDICATES FEW OR NO CLOUDS BELOW 12,000 FEET WITH NO
SIGNIFICANT WEATHER AND/OR OBSTRUCTIONS TO VISIBILITY.

 * = STATION DOES NOT REPORT PRECIPITATION (E.G. RAIN, SNOW, ETC.)
        OR FOG.

NJZ015>026-300700-
SOUTHERN NEW JERSEY

CITY           SKY/WX    TMP DP  RH WIND       PRES   REMARKS
POMONA         CLEAR     38  26  62 NE6       30.19F WCI  33
6HR MIN TEMP:  38; 6HR MAX TEMP:  46;

WILDWOOD*      PTCLDY    43  28  55 NE8       30.19F
MILLVILLE      CLEAR     43  28  55 NE8       30.18F
WRIGHTSTOWN    PTCLDY    39  26  59 N8        30.18F WCI  33
MOUNT HOLLY    CLEAR     40  25  55 N5        30.21F
TRENTON        PTCLDY    38  25  59 N7        30.21F WCI  33
6HR MIN TEMP:  38; 6HR MAX TEMP:  51;


$$
NJZ001>014-300700-
NORTHERN NEW JERSEY

CITY           SKY/WX    TMP DP  RH WIND       PRES   REMARKS
SUSSEX         PTCLDY    32  25  75 CALM      30.21F
ANDOVER*         N/A     32  25  75 CALM      30.22S
MORRISTOWN     CLEAR     32  27  80 CALM      30.22F
NEWARK         PTCLDY    40  23  50 N10       30.22F WCI  33
TETERBORO      PTCLDY    40  22  48 NE3       30.22F
CALDWELL       PTCLDY    37  26  64 CALM      30.22F
SOMERVILLE     PTCLDY    36  26  67 CALM      30.21S
ALLAIRE*       CLEAR     41  23  48 NE7       30.22F
TOMS RIVER*    CLEAR     33  28  81 N3        30.21F

$$
PAZ043-044-047-054-055-060>062-066>071-300700-
EASTERN PENNSYLVANIA

CITY           SKY/WX    TMP DP  RH WIND       PRES   REMARKS
PHILADELPHIA   PTCLDY    43  25  49 N14       30.21F
6HR MIN TEMP:  43; 6HR MAX TEMP:  55;

NORTH PHILA    CLEAR     42  25  50 N10       30.23F
BLUE BELL*     CLEAR     37  27  65 CALM      30.21S
DOYLESTOWN     CLEAR     37  24  59 N5        30.21F WCI  33
QUAKERTOWN*    CLEAR     37  25  60 NE5       30.22F WCI  34
PERKASIE*      FAIR      36  23  60 N3        30.22F
POTTSTOWN      CLEAR     38  23  55 CALM      30.24S
LANCASTER      CLEAR     39  28  64 NE10      30.19F WCI  32
COATESVILLE    CLEAR     41  25  52 NE8       30.21R
READING        CLOUDY    40  26  57 NE7       30.22S
6HR MIN TEMP:  40; 6HR MAX TEMP:  51;

ALLENTOWN      CLEAR     37  22  54 N6        30.23S WCI  32
6HR MIN TEMP:  37; 6HR MAX TEMP:  49;

MOUNT POCONO   CLEAR     30  22  72 NE8       30.16F WCI  22
6HR MIN TEMP:  30; 6HR MAX TEMP:  39;

HAZLETON       CLEAR     32  23  69 NE3       30.20F
LEHIGHTON      FAIR      34  25  69 CALM      30.24S
WILKES BARRE   CLEAR     32  24  72 SE3       30.20F

$$
DEZALL-MDZ008-012-015-019-020-300700-
DELAWARE AND EASTERN MARYLAND

CITY           SKY/WX    TMP DP  RH WIND       PRES   REMARKS
WILMINGTON     CLEAR     44  26  49 NE12      30.20F
6HR MIN TEMP:  43; 6HR MAX TEMP:  55;

DOVER          CLEAR     44  34  67 NE10      30.18S
GEORGETOWN     PTCLDY    46  32  58 E7        30.19R
6HR MIN TEMP:  45; 6HR MAX TEMP:  58;

EASTON         CLEAR     45  29  52 E8        30.22S
ABERDEEN       CLEAR     41  28  60 NE7       30.22R
PATUXENT       CLEAR     47  37  68 NE8       30.20R
OCEAN CITY     CLEAR     46  34  62 NE9       30.18F
WALLOPS ISLAND CLEAR     47  38  71 NE12      30.18F
CAMBRIDGE      CLEAR     48  28  46 NE3       30.19S
SALISBURY      CLEAR     42  33  70 E6        30.18S

$$
PAZ001-021-NYZ056-072-MDZ011-DCZ001-300700-
OTHER NEARBY LOCATIONS

CITY           SKY/WX    TMP DP  RH WIND       PRES   REMARKS
HARRISBURG     MOCLDY    43  26  51 NE5       30.19F
STATE COLLEGE  PTCLDY    38  26  61 N7        30.20R WCI  32
WILLIAMSPORT   CLEAR     35  25  66 CALM      30.23F
BINGHAMTON     CLEAR     29  21  72 NE5       30.17F WCI  24
NEW YORK CITY  CLEAR     41  22  46 NE13      30.23F
BALTIMORE      CLEAR     47  28  47 NE9       30.19F
WASHINGTON DC  PTCLDY    51  32  48 NE8       30.21R

$$



USA.gov is the U.S. government's official web portal to all federal, state and local government web resources and services.